Regional Weather Roundup
Issued by NWS Albany, NY

Home | Current Version | Previous Version | Graphics & Text | Print | Product List | Glossary Off
Versions: 1 2 3 4 5 6 7 8 9 10 11 12 13 14 15 16 17 18 19 20 21 22 23 24 25 26 27 28 29 30 31 32 33 34 35 36 37 38 39 40 41 42 43 44

000
ASUS41 KALY 220710
RWRALY

NEW YORK STATE HOURLY WEATHER ROUNDUP
NATIONAL WEATHER SERVICE ALBANY NY
200 AM EST MON DEC 22 2014

NOTE: "FAIR" INDICATES FEW OR NO CLOUDS BELOW 12,000 FEET WITH NO
SIGNIFICANT WEATHER AND/OR NO OBSTRUCTIONS TO VISIBILITY.

NYZ032-033-038>043-046>054-057>066-NYZ062>081-220800-
EAST


CITY           SKY/WX    TMP DP  RH WIND       PRES   REMARKS
ALBANY         CLOUDY    30  23  75 N3        30.37S
GLENS FALLS    CLOUDY    27  22  81 E3        30.37S
POUGHKEEPSIE   CLOUDY    33  27  78 N6        30.34S WCI  28
NEWBURGH       CLOUDY    30  28  93 E6        30.33S WCI  24
MONTGOMERY     CLOUDY    31  26  82 NE5       30.32S WCI  26
WHITE PLAINS   LGT SNOW  33  30  88 N3        30.30S FOG
ISLIP          CLOUDY    37  33  85 N7        30.30S WCI  32
NEW YORK CITY  CLOUDY    36  30  79 NE5       30.32S WCI  32
CENTRAL PARK   CLOUDY    35  29  78 VRB5      30.34S WCI  31
$$

NYZ005>009-017-018-044>046-055-056-220800-
CENTRAL


CITY           SKY/WX    TMP DP  RH WIND       PRES   REMARKS
FULTON         CLOUDY    31  25  78 SE3       30.32R
SYRACUSE       CLOUDY    30  23  75 SE6       30.33R WCI  24
ROME           CLOUDY    30  22  72 E5        30.35S WCI  25
ELMIRA         CLOUDY    28  21  75 SW5       30.29S WCI  23
BINGHAMTON     CLOUDY    26  22  84 CALM      30.25S
MONTICELLO     CLOUDY    28  27  93 E5        30.28R WCI  23
$$

NYZ026>034-041>043-220800-
NORTH


CITY           SKY/WX    TMP DP  RH WIND       PRES   REMARKS
WATERTOWN      PTCLDY    20  15  81 E3        30.33F HAZE
FORT DRUM      NOT AVBL
MASSENA        CLOUDY    15  12  88 E5        30.39S WCI   8
SARANAC LAKE   CLEAR      7  32 100 CALM      30.26R
PLATTSBURGH    CLOUDY    23  20  88 CALM      30.39R FOG
$$

NYZ001>004-010>016-019>021-220800-
WEST


CITY           SKY/WX    TMP DP  RH WIND       PRES   REMARKS
NIAGARA FALLS  CLOUDY    30  23  75 SE7       30.24  WCI  23
BUFFALO        MOCLDY    30  23  75 SE8       30.24F WCI  22
DUNKIRK        CLEAR     24  20  84 E5        30.23F WCI  18
JAMESTOWN      CLEAR     21  18  86 SE6       30.15F WCI  14
WELLSVILLE     PTCLDY    23  18  81 SE7       30.19F WCI  15
ROCHESTER      CLOUDY    32  21  64 SE10      30.28F WCI  24
PENN YAN       CLOUDY    29  20  69 S7        30.28S WCI  22
$$

             KEY
       WCI = WIND CHILL INDEX
       VSB = VISIBILITY
       HX  = HEAT INDEX
$$


USA.gov is the U.S. government's official web portal to all federal, state and local government web resources and services.